IRS-P5 (CARTOSAT-1)

Last updated on Mon Dec 15 2025 00:02:36 GMT+0000 (Coordinated Universal Time)

1 28649U 05017A 25348.36039641 .00002476 00000+0 25950-3 0 9998 2 28649 97.5499 14.7020 0001147 48.5235 311.6082 14.90412626116282
UTC large
Height (km)
Speed (km/s)
/
Latitude / Longitude
Inclination (degrees)
Orbital Period (minutes)
Azimuth
Elevation
Range (km)
Doppler Factor

Next 0 passes for location: London (51.5072 / 0.1276)

Sorry there are no passes over London.